Regional Weather Roundup
Issued by NWS Green Bay, WI

Home | Current Version | Previous Version | Graphics & Text | Print | Product List | Glossary Off
Versions: 1 2 3 4 5 6 7 8 9 10 11 12 13 14 15 16 17 18 19 20 21 22 23 24 25 26 27 28 29 30 31 32 33 34 35 36 37 38 39 40 41 42 43 44 45 46 47 48 49 50

000
ASUS43 KGRB 221910
RWRGRB

NORTH-CENTRAL AND NORTHEAST WISCONSIN REGIONAL WEATHER ROUNDUP
NATIONAL WEATHER SERVICE GREEN BAY WI
200 PM CDT TUE JUL 22 2014

WIZ005-009-010>012-018-019-222000-
NORTH CENTRAL WISCONSIN

CITY           SKY/WX    TMP DP  RH WIND       PRES   REMARKS
IRONWOOD       CLOUDY    70  63  78 NW12G18   29.92R
MANITOWISH WTR CLOUDY    70  64  80 NW9       29.96R
ARBOR VITAE    CLOUDY    77  66  68 NW9G18    29.96R
EAGLE RIVER    CLOUDY    76  61  59 NW14G21   29.93R
LAND O LAKES   CLOUDY    75  62  64 NW14G20   29.94R
RHINELANDER    PTSUNNY   79  65  62 W15G23    29.95R
PHILLIPS       CLOUDY    75  65  69 NW8       29.96R
ANTIGO         MOSUNNY   81  66  61 NW12      29.93R
TOMAHAWK       PTSUNNY   79  65  60 W13       29.95R
MERRILL        MOSUNNY   83  67  58 W9        29.93R
$$

WIZ013-073-222000-
NORTHEAST WISCONSIN

CITY           SKY/WX    TMP DP  RH WIND       PRES   REMARKS
IRON MOUNTAIN  PTSUNNY   84  64  50 NW14G24   29.85R
MARINETTE      MOSUNNY   88  73  62 SW13      29.80S HX  96
OCONTO         MOSUNNY   90  73  57 W15       29.82S HX  98
$$

WIZ017-030-035>037-045-222000-
CENTRAL WISCONSIN

CITY           SKY/WX    TMP DP  RH WIND       PRES   REMARKS
MEDFORD        MOSUNNY   79  66  64 NW12G17   29.95S
WAUSAU         MOSUNNY   86  65  49 NW16      29.91R
MOSINEE        MOSUNNY   84  64  51 W15G22    29.94R
MARSHFIELD     MOSUNNY   84  66  54 NW17G26   29.95R
WISC RAPIDS    MOSUNNY   88  68  51 NW17      29.93R HX  91
STEVENS POINT  MOSUNNY   85  66  51 W10G17    29.91R
WAUPACA        MOSUNNY   94  69  43 W13G18    29.88S HX  99
SHAWANO        CLOUDY    88  71  56 W9G20     29.86R HX  94
CLINTONVILLE   PTSUNNY   90  68  48 W14       29.86R HX  93
$$

WIZ038-039-048-051-222000-
FOX VALLEY

CITY           SKY/WX    TMP DP  RH WIND       PRES   REMARKS
NWS GREEN BAY  MOSUNNY   89  75  63 W8        29.86R HX  99
APPLETON       PTSUNNY   84  72  65 W13       29.89R
OSHKOSH        MOSUNNY   88  75  65 W12G18    29.88R HX  97
FOND DU LAC    MOSUNNY   88  74  63 W12       29.88S HX  96
$$

WIZ022-050-052-222000-
EAST CENTRAL WISCONSIN

CITY           SKY/WX    TMP DP  RH WIND       PRES   REMARKS
STURGEON BAY   SUNNY     88  72  58 SW16G24   29.84S HX  94
MANITOWOC      PTSUNNY   88  74  63 W12       29.86R HX  96
SHEBOYGAN      SUNNY     87  74  64 SW14      29.86F HX  95
$$

LMZ563-521-522-541>543-222000-
LAKESHORE

STATION/POSITION TIME  TEMP    WIND        PRES    VSBY  WAVE
                       AIR SEA DIR/SP/G                  HT/PER
                 (UTC) (F)     (DEG/KT/KT) (MB)    (MI)  (FT/S)
SHEBOYGAN LKSHOR 1900   72     170/ 23/ 24 1010.7F
KEWAUNEE LKSHORE 1900   64     160/  7/ 10 1011.5S
TWO RIVERS CG    1800   64                   N/A    3 1/2  3
NORTHPORT PIER   1900   70     140/ 10/ 13 1009.1S
N MID LAKE BUOY  1900   62 57  210/ 23/ 27 1008.6S         6/ 6
CHAMBERS ISLAND  1900   83     190/  5/ 14 1009.1S
MENOMINEE LKSHOR 1900   86     220/ 14/ 21 1010.2R
$$


USA.gov is the U.S. government's official web portal to all federal, state and local government web resources and services.